Flag Weather past 2 weeks in Gorleben, Lower Saxony, Germany

Now
40 °F

Overcast.


Feels Like: 37 °F
Forecast: 33 / 39 °F
Wind: 3 mph from Southeast

Location: Marnitz

Current Time: Nov 26, 2014 at 6:55:55 AM

Latest Report: Nov 26, 2014 at 6:00 AM


Visibility: 11 mi

Pressure: 30.26 "Hg

Humidity: 95%

Dew point: 38 °F

Location of GorlebenLocation

Historic Weather in Gorleben — Graph

°F

Gorleben temperature yesterday

Maximum temperature yesterday: 42 °F (at 1:00 AM)
Minimum temperature yesterday: 35 °F (at 8:00 AM)
Average temperature yesterday: 39 °F

Past Weeks' High & Low Weather Summary

 TemperatureHumidityPressure
High54 °F (Nov 14, 2:00 PM)100% (Nov 11, 5:00 AM)30.37 "Hg (Nov 11, 5:00 AM)
Low34 °F (Nov 21, 11:00 PM)75% (Nov 22, 2:00 PM)29.57 "Hg (Nov 16, 3:00 PM)
Average44 °F94%30.02 "Hg
* Reported Nov 11 5:00 AM — Nov 26 5:00 AM, Gorleben, Weather by CustomWeather, © 2014

Note: Actual official high and low records may vary slightly from our data, if they occured in-between our weather recording intervals... More about our weather records

Advertising

Gorleben weather history for previous 24 hours

 ConditionsComfort  
Time TempWeatherWind HumidityBarometerVisibility
5:00 AM
Nov 26
39 °FOvercast.2 mph98%30.27 "Hg7 mi
4:00 AM39 °FFog.2 mph100%30.28 "Hg3 mi
3:00 AM38 °FFog.1 mph100%30.29 "Hg3 mi
2:00 AM38 °FFog.2 mph100%30.31 "Hg1 mi
1:00 AM39 °FLow clouds.2 mph100%30.32 "Hg6 mi
12:00 AM38 °FFog.2 mph100%30.33 "Hg1 mi
11:00 PM
Nov 25
37 °FLow clouds.2 mph100%30.34 "Hg1 mi
10:00 PM37 °FDuststorm.3 mph100%30.34 "Hg1 mi
9:00 PM38 °FDuststorm.2 mph100%30.34 "Hg0 mi
8:00 PM37 °FDuststorm.2 mph100%30.35 "Hg0 mi
7:00 PM37 °FDuststorm.2 mph100%30.34 "Hg0 mi
6:00 PM38 °FDuststorm.2 mph100%30.34 "Hg0 mi
5:00 PM38 °FDuststorm.1 mph100%30.34 "Hg0 mi
4:00 PM38 °FDuststorm.1 mph100%30.34 "Hg0 mi
3:00 PM39 °FDuststorm.1 mph100%30.33 "Hg0 mi
2:00 PM40 °FDuststorm.1 mph100%30.34 "Hg0 mi
1:00 PM40 °FDuststorm.1 mph100%30.35 "Hg1 mi
12:00 PM40 °FDuststorm.1 mph99%30.35 "Hg1 mi
11:00 AM39 °FChilly.1 mph99%30.36 "Hg2 mi
10:00 AM38 °FDuststorm.2 mph100%30.36 "Hg0 mi
9:00 AM35 °FDuststorm.No wind100%30.34 "Hg0 mi
8:00 AM35 °FDuststorm.1 mph100%30.33 "Hg0 mi
7:00 AM37 °FDuststorm.1 mph100%30.32 "Hg0 mi
6:00 AM39 °FDuststorm.2 mph100%30.30 "Hg0 mi
Weather by CustomWeather, © 2014

See weather overviewHow to use our weather pages